Farmville, Virginia, United States (23901)
Lat: 37.30N, Lon: 78.39W
Wx Zone: VAZ060
Local Info
Past Weather Observations for Yesterday

NOTE: This archive is for the closest National Weather Service station to Farmville. Information may differ from the station used for current weather conditions.

Click here for Long-term Archive

Time Weather Temperature Dewpoint Humidity Pressure Winds Precip Visibility
23:55
Overcast
41°F / 5°C 37°F / 3°C 87% 29.83 in
(1010 mb)
Calm - 10SM
23:35
Overcast
39°F / 4°C 39°F / 4°C 100% 29.83 in
(1010 mb)
Calm - 10SM
23:15
Overcast
Drizzle
39°F / 4°C 39°F / 4°C 100% 29.83 in
(1010 mb)
Calm - 10SM
22:55
Overcast
Light Rain
39°F / 4°C 39°F / 4°C 100% 29.83 in
(1010 mb)
N 3.5 mph
(N 6 kph)
0.01 in
(0.25 mm)
10SM
22:35
Overcast
Rain
39°F / 4°C 39°F / 4°C 100% 29.83 in
(1010 mb)
Calm 0.01 in
(0.25 mm)
10SM
22:15
Overcast
Light Rain
39°F / 4°C 39°F / 4°C 100% 29.83 in
(1010 mb)
NNW 4.6 mph
(NNW 7 kph)
- 10SM
21:55
Overcast
Light Rain
41°F / 5°C 41°F / 5°C 100% 29.83 in
(1010 mb)
NW 8.1 mph
(NW 13 kph)
0.01 in
(0.25 mm)
10SM
21:35
Overcast
Rain
43°F / 6°C 43°F / 6°C 100% 29.83 in
(1010 mb)
SSW 4.6 mph
(SSW 7 kph)
- 7SM
21:15
Overcast
43°F / 6°C 43°F / 6°C 100% 29.8 in
(1009 mb)
SSW 4.6 mph
(SSW 7 kph)
- 7SM
20:55
Mostly Cloudy
43°F / 6°C 43°F / 6°C 100% 29.8 in
(1009 mb)
Calm - 10SM
20:35
Partly Cloudy
41°F / 5°C 41°F / 5°C 100% 29.8 in
(1009 mb)
SSW 3.5 mph
(SSW 6 kph)
- 10SM
20:15
Partly Cloudy
43°F / 6°C 43°F / 6°C 100% 29.8 in
(1009 mb)
Calm - 10SM
19:55
Partly Cloudy
43°F / 6°C 43°F / 6°C 100% 29.8 in
(1009 mb)
Calm - 10SM
19:35
Mostly Cloudy
43°F / 6°C 43°F / 6°C 100% 29.8 in
(1009 mb)
SSE 3.5 mph
(SSE 6 kph)
- 10SM
19:15
Overcast
43°F / 6°C 43°F / 6°C 100% 29.8 in
(1009 mb)
Calm - 10SM
18:55
Overcast
43°F / 6°C 41°F / 5°C 93% 29.77 in
(1008 mb)
SW 3.5 mph
(SW 6 kph)
- 10SM
18:35
Overcast
45°F / 7°C 41°F / 5°C 87% 29.77 in
(1008 mb)
S 4.6 mph
(S 7 kph)
- 10SM
18:15
Overcast
45°F / 7°C 39°F / 4°C 81% 29.77 in
(1008 mb)
Calm - 10SM
17:55
Overcast
45°F / 7°C 39°F / 4°C 81% 29.77 in
(1008 mb)
SSE 3.5 mph
(SSE 6 kph)
- 10SM
17:35
Overcast
45°F / 7°C 39°F / 4°C 81% 29.77 in
(1008 mb)
SSE 3.5 mph
(SSE 6 kph)
- 10SM
17:15
Overcast
45°F / 7°C 39°F / 4°C 81% 29.77 in
(1008 mb)
SSE 3.5 mph
(SSE 6 kph)
- 10SM
16:55
Overcast
45°F / 7°C 39°F / 4°C 81% 29.77 in
(1008 mb)
SSE 3.5 mph
(SSE 6 kph)
- 10SM
16:35
Overcast
45°F / 7°C 39°F / 4°C 81% 29.77 in
(1008 mb)
SE 4.6 mph
(SE 7 kph)
- 10SM
16:15
Overcast
46°F / 8°C 39°F / 4°C 76% 29.77 in
(1008 mb)
Calm - 10SM
15:55
Overcast
46°F / 8°C 41°F / 5°C 82% 29.77 in
(1008 mb)
E 4.6 mph
(E 7 kph)
- 10SM
15:35
Overcast
46°F / 8°C 39°F / 4°C 76% 29.77 in
(1008 mb)
E 4.6 mph
(E 7 kph)
- 10SM
15:15
Overcast
46°F / 8°C 39°F / 4°C 76% 29.77 in
(1008 mb)
E 3.5 mph
(E 6 kph)
- 10SM
14:55
Overcast
46°F / 8°C 43°F / 6°C 87% 29.77 in
(1008 mb)
Calm - 10SM
14:35
Overcast
45°F / 7°C 43°F / 6°C 93% 29.77 in
(1008 mb)
E 3.5 mph
(E 6 kph)
- 10SM
14:15
Overcast
43°F / 6°C 43°F / 6°C 100% 29.77 in
(1008 mb)
ENE 4.6 mph
(ENE 7 kph)
- 10SM
13:55
Overcast
45°F / 7°C 43°F / 6°C 93% 29.77 in
(1008 mb)
E 10.4 mph
(E 17 kph)
0.01 in
(0.25 mm)
10SM
13:35
Overcast
Light Rain
43°F / 6°C 43°F / 6°C 100% 29.8 in
(1009 mb)
ENE 6.9 mph
(ENE 11 kph)
0.01 in
(0.25 mm)
10SM
13:15
Overcast
Light Rain
43°F / 6°C 43°F / 6°C 100% 29.8 in
(1009 mb)
NNE 4.6 mph
(NNE 7 kph)
- 10SM
12:55
Overcast
Light Rain
43°F / 6°C 43°F / 6°C 100% 29.8 in
(1009 mb)
NE 8.1 mph
(NE 13 kph)
- 10SM
12:35
Overcast
Drizzle
43°F / 6°C 43°F / 6°C 100% 29.8 in
(1009 mb)
NE 9.2 mph
(NE 15 kph)
- 10SM
12:15
Overcast
Drizzle
43°F / 6°C 43°F / 6°C 100% 29.8 in
(1009 mb)
NE 10.4 mph
(NE 17 kph)
- 10SM
11:55
Overcast
Light Rain
43°F / 6°C 43°F / 6°C 100% 29.83 in
(1010 mb)
NE 6.9 mph
(NE 11 kph)
0.03 in
(0.76 mm)
10SM
11:35
Overcast
Rain
43°F / 6°C 43°F / 6°C 100% 29.83 in
(1010 mb)
NE 5.8 mph
(NE 9 kph)
0.02 in
(0.51 mm)
10SM
11:15
Overcast
Light Rain
43°F / 6°C 43°F / 6°C 100% 29.83 in
(1010 mb)
NE 9.2 mph
(NE 15 kph)
0.01 in
(0.25 mm)
10SM
10:55
Overcast
Rain
43°F / 6°C 43°F / 6°C 100% 29.83 in
(1010 mb)
ENE 8.1 mph
(ENE 13 kph)
0.09 in
(2.29 mm)
10SM
10:35
Overcast
Light Rain
43°F / 6°C 43°F / 6°C 100% 29.83 in
(1010 mb)
ENE 4.6 mph
(ENE 7 kph)
0.08 in
(2.03 mm)
10SM
10:15
Overcast
Rain
43°F / 6°C 43°F / 6°C 100% 29.83 in
(1010 mb)
NE 8.1 mph
(NE 13 kph)
0.05 in
(1.27 mm)
7SM
09:55
Overcast
Rain
43°F / 6°C 43°F / 6°C 100% 29.83 in
(1010 mb)
NNE 5.8 mph
(NNE 9 kph)
0.13 in
(3.30 mm)
4SM
09:35
Overcast
Rain
43°F / 6°C 43°F / 6°C 100% 29.83 in
(1010 mb)
N 4.6 mph
(N 7 kph)
0.06 in
(1.52 mm)
7SM
09:15
Overcast
Rain
43°F / 6°C 43°F / 6°C 100% 29.8 in
(1009 mb)
NE 8.1 mph
(NE 13 kph)
0.01 in
(0.25 mm)
10SM
08:55
Overcast
Light Rain
45°F / 7°C 45°F / 7°C 100% 29.77 in
(1008 mb)
NE 11.5 mph
(NE 19 kph)
0.08 in
(2.03 mm)
7SM
08:35
Overcast
Light Rain
45°F / 7°C 45°F / 7°C 100% 29.8 in
(1009 mb)
NE 8.1 mph
(NE 13 kph)
0.06 in
(1.52 mm)
10SM
08:15
Overcast
Rain
45°F / 7°C 45°F / 7°C 100% 29.77 in
(1008 mb)
NE 12.7 mph
(NE 20 kph)
0.04 in
(1.02 mm)
7SM
07:55
Overcast
Rain
45°F / 7°C 45°F / 7°C 100% 29.8 in
(1009 mb)
NE 11.5 mph
(NE 19 kph)
0.06 in
(1.52 mm)
10SM
07:35
Overcast
Rain
46°F / 8°C 46°F / 8°C 100% 29.77 in
(1008 mb)
NE 11.5 mph
(NE 19 kph)
0.03 in
(0.76 mm)
7SM
07:15
Overcast
Light Rain
46°F / 8°C 46°F / 8°C 100% 29.77 in
(1008 mb)
NE 9.2 mph
(NE 15 kph)
0.01 in
(0.25 mm)
7SM
06:55
Overcast
Drizzle
46°F / 8°C 46°F / 8°C 100% 29.77 in
(1008 mb)
NNE 10.4 mph
(NNE 17 kph)
0.04 in
(1.02 mm)
10SM
06:35
Overcast
Rain
46°F / 8°C 46°F / 8°C 100% 29.77 in
(1008 mb)
NE 10.4 mph
(NE 17 kph)
0.03 in
(0.76 mm)
10SM
06:15
Overcast
Light Rain
46°F / 8°C 46°F / 8°C 100% 29.77 in
(1008 mb)
NNE 10.4 mph
(NNE 17 kph)
0.01 in
(0.25 mm)
10SM
05:55
Overcast
Light Rain
46°F / 8°C 46°F / 8°C 100% 29.77 in
(1008 mb)
NE 11.5 mph
(NE 19 kph)
0.01 in
(0.25 mm)
7SM
05:35
Overcast
Light Rain
46°F / 8°C 46°F / 8°C 100% 29.77 in
(1008 mb)
NNE 8.1 mph
(NNE 13 kph)
- 7SM
05:15
Overcast
Drizzle
46°F / 8°C 46°F / 8°C 100% 29.74 in
(1007 mb)
NE 11.5 mph
(NE 19 kph)
- 7SM
04:55
Overcast
Rain
46°F / 8°C 46°F / 8°C 100% 29.74 in
(1007 mb)
NNE 10.4 mph
(NNE 17 kph)
0.02 in
(0.51 mm)
7SM
04:35
Overcast
Drizzle
48°F / 9°C 48°F / 9°C 100% 29.74 in
(1007 mb)
NNE 9.2 mph
(NNE 15 kph)
0.01 in
(0.25 mm)
10SM
04:15
Overcast
Light Rain
48°F / 9°C 48°F / 9°C 100% 29.74 in
(1007 mb)
NE 9.2 mph
(NE 15 kph)
0.01 in
(0.25 mm)
7SM
03:55
Overcast
Rain
48°F / 9°C 48°F / 9°C 100% 29.74 in
(1007 mb)
NE 10.4 mph
(NE 17 kph)
0.02 in
(0.51 mm)
7SM
03:35
Overcast
Light Rain
48°F / 9°C 48°F / 9°C 100% 29.77 in
(1008 mb)
NE 11.5 mph
(NE 19 kph)
0.02 in
(0.51 mm)
7SM
03:15
Overcast
Drizzle
48°F / 9°C 48°F / 9°C 100% 29.77 in
(1008 mb)
NNE 8.1 mph
(NNE 13 kph)
- 7SM
02:55
Overcast
50°F / 10°C 46°F / 8°C 88% 29.74 in
(1007 mb)
NNE 11.5 mph
(NNE 19 kph)
- 10SM
02:35
Overcast
Drizzle
50°F / 10°C 45°F / 7°C 82% 29.74 in
(1007 mb)
NE 18.4 mph
(NE 30 kph)
- 10SM
02:15
Overcast
Drizzle
52°F / 11°C 48°F / 9°C 88% 29.74 in
(1007 mb)
NE 17.3 mph
(NE 28 kph)
- 10SM
01:55
Overcast
Light Rain
54°F / 12°C 48°F / 9°C 82% 29.71 in
(1006 mb)
NNE 12.7 mph
(NNE 20 kph)
- 10SM
01:35
Overcast
Light Rain
57°F / 14°C 50°F / 10°C 77% 29.71 in
(1006 mb)
NNE 19.6 mph
(NNE 32 kph)
- 10SM
01:15
Overcast
63°F / 17°C 55°F / 13°C 77% 29.68 in
(1005 mb)
NNE 6.9 mph
(NNE 11 kph)
- 10SM
00:55
Overcast
63°F / 17°C 55°F / 13°C 77% 29.68 in
(1005 mb)
NNE 9.2 mph
(NNE 15 kph)
- 10SM
00:35
Overcast
64°F / 18°C 55°F / 13°C 73% 29.68 in
(1005 mb)
NW 3.5 mph
(NW 6 kph)
- 10SM
00:15
Overcast
64°F / 18°C 55°F / 13°C 73% 29.68 in
(1005 mb)
N 3.5 mph
(N 6 kph)
- 10SM
Time Weather Temperature Dewpoint Humidity Pressure Winds Precip Visibility


Weather for websites

WeatherForYou.com, LLC is not responsible for any damages or problems caused by this service. Current weather conditions are obtained from the closest station including government and personal stations which may have varying degrees of accuracy. Weather forecasts are derived from the NOAA NDFD. Like all things, this site belongs to Jesus Christ... He just trusts me to maintain it. If you have any questions or comments email webmaster@weatherforyou.com

Copyright © 2015, WeatherForYou.com LLC. All rights reserved.